Location: Seattle
(47.6064°N, 122.3308°W)
Time: 01:48:26
(UTC-07:00)

STRAND 1 - Pass Details

Date: 10 April 2023
Orbit: 767 x 779 km, 98.4° (Epoch: 02 June)

Event Time Altitude Azimuth Distance (km) Brightness Sun altitude
Rises 21:22:20 0° 3° (N) 3,250 ? -14.9°
Reaches altitude 10° 21:25:02 10° 350° (N) 2,319 ? -15.3°
Maximum altitude 21:29:00 23° 299° (WNW) 1,582 ? -15.9°
Drops below altitude 10° 21:32:56 10° 248° (WSW) 2,309 ? -16.4°
Sets 21:35:38 0° 234° (SW) 3,232 ? -16.8°
